Preview of NWS' New Version of Forecast
This preview is not operational and should not be used for support decisions.

Regional Weather Roundup (RWR)

Issued by National Weather Service (NWS)

                            
000
ASUS45 KABQ 152110
RWRNM 
NEW MEXICO REGIONAL WEATHER ROUNDUP
NATIONAL WEATHER SERVICE ALBUQUERQUE NM
300 PM MDT MON OCT 15 2018

NOTE: "FAIR" MEANS FEW OR NO CLOUDS BELOW 12,000 FEET AGL WITH NO
       SIGNIFICANT WEATHER OR OBSTRUCTIONS TO VISION.

      THIS PRODUCT IS RELEASED AS TWO VERSIONS.  ONE VERSION NEAR
      THE TOP OF THE HOUR CONTAINING PRELIMINARY DATA FROM ALBUQUERQUE
      AND OTHER STATIONS.  A FINAL VERSION WITH ADDITIONAL DATA IS 
      ISSUED ABOUT 10 MINUTES AFTER THE HOUR.
 
NMZ501-503-504-510>518-152200-
NORTHWEST PLATEAU/NORTHCENTRAL MOUNTAINS
  
CITY           SKY/WX    TMP DP  RH WIND       PRES   REMARKS
FARMINGTON     FAIR      49  15  25 CALM      30.23F                  
LOS ALAMOS     CLOUDY    34  29  81 S6        30.29F WCI  29          
SANTA FE       CLOUDY    38  29  70 S13       30.29F WCI  30          
TAOS           CLOUDY    37  32  82 S6        30.29F WCI  32          
ANGEL FIRE     CLOUDY    33  27  80 S12       30.30S WCI  24          

$$
NMZ402-403-502-505>509-152200-
WESTCENTRAL MOUNTAINS/SOUTHWEST MOUNTAINS
  
CITY           SKY/WX    TMP DP  RH WIND       PRES   REMARKS
GALLUP         CLOUDY    44  28  53 NE13      30.21F                  

$$
NMZ407-409-411-412-152200-
SOUTHERN DESERTS
  
CITY           SKY/WX    TMP DP  RH WIND       PRES   REMARKS
DEMING         CLOUDY    53  35  50 E16G28    30.18F                  
LAS CRUCES     CLOUDY    48  32  53 SE18      30.21F                  
HOLLOMAN AFB   PTSUNNY   51  35  54 W3        30.25S                  
T OR C         CLOUDY    46  30  53 NE20      30.23F                  

$$
NMZ519>523-152200-
CENTRAL VALLEYS/CENTRAL HIGHLANDS
  
CITY           SKY/WX    TMP DP  RH WIND       PRES   REMARKS
ALBUQUERQUE    CLOUDY    40  26  57 E24G32    30.27F WCI  29          
DOUBLE EAGLE   CLOUDY    41  28  60 SE12G17   30.28F                  
MORIARTY ARPT  CLOUDY    36  28  73 SE7       30.33F WCI  30          
CLINES CORNERS CLOUDY    28  24  85 E14       30.30F WCI  17          
BELEN          NOT AVBL                                               
SOCORRO        CLOUDY    43  30  59 NW5       30.27F                  

$$
NMZ524>526-539-540-152200-
SOUTHCENTRAL MOUNTAINS
  
CITY           SKY/WX    TMP DP  RH WIND       PRES   REMARKS
RUIDOSO        NOT AVBL                                               

$$
NMZ527>531-152200-
NORTHEAST HIGHLANDS/NORTHEAST PLAINS
  
CITY           SKY/WX    TMP DP  RH WIND       PRES   REMARKS
LAS VEGAS      CLOUDY    37  23  56 VRB6      30.32F WCI  32          
RATON          CLOUDY    41  16  36 SW7       30.31F                  
CLAYTON        FAIR      44  17  33 NE8       30.34F                  

$$
NMZ532>537-152200-
EASTCENTRAL PLAINS
  
CITY           SKY/WX    TMP DP  RH WIND       PRES   REMARKS
TUCUMCARI      PTSUNNY   46  20  35 E12       30.33F                  
CANNON AFB     CLOUDY    38  20  48 NE13      30.36F WCI  30          
CLOVIS AIRPORT CLOUDY    39  22  50 NE14      30.36F WCI  31          

$$
NMZ028-029-538-152200-
SOUTHEAST PLAINS
  
CITY           SKY/WX    TMP DP  RH WIND       PRES   REMARKS
ROSWELL        CLOUDY    43  24  47 N10       30.35F                  
CARLSBAD       CLOUDY    44  25  47 N14       30.33F                  
HOBBS          CLOUDY    41  25  52 N14       30.34R                  


$$